Regional Weather Roundup
Issued by NWS Memphis, TN

Home | Current Version | Previous Version | Text Only | Print | Product List | Glossary On
Versions: 1 2 3 4 5 6 7 8 9 10 11 12 13 14 15 16 17 18 19 20 21 22 23 24 25 26 27 28 29 30 31 32 33 34 35 36 37 38 39 40 41 42 43 44 45 46 47 48 49 50
000
ASUS44 KMEG 020110
RWRMEG
MEMPHIS CWA HOURLY WEATHER ROUNDUP
NATIONAL WEATHER SERVICE MEMPHIS TN
800 PM CDT SAT AUG 01 2015

...WEST TENNESSEE...

CITY           SKY/WX    TMP DP  RH WIND       PRES   REMARKS
MEMPHIS INTL   PTCLDY    87  64  46 N7        29.95S
NWS MEMPHIS      N/A     85 N/A N/A MISG        N/A
JACKSON        CLEAR     86  68  54 W3        29.95S
LEXINGTON      CLEAR     81  72  74 CALM      29.96R
DYERSBURG        N/A    N/A N/A N/A MISG        N/A
PARIS          CLEAR     79  70  73 CALM      29.98S


...EASTERN ARKANSAS...

CITY           SKY/WX    TMP DP  RH WIND       PRES   REMARKS
JONESBORO      CLEAR     79  69  71 NE3       29.95S
WEST MEMPHIS   CLEAR     84  66  54 N5        29.94S
BATESVILLE     CLEAR     82  72  69 CALM      29.95F
NEWPORT        CLEAR     87  72  61 S5        29.96S HX  93
WALNUT RIDGE   CLEAR     90  64  43 CALM      29.95R HX  91
BLYTHEVILLE    CLEAR     85  74  69 N3        29.95S HX  92
SEARCY         CLEAR     83  69  62 CALM      29.96F
STUTTGART      CLEAR     90  63  40 MISG      29.95S HX  90
PINE BLUFF     CLEAR     87  67  51 CALM      29.95S HX  90
MONTICELLO     CLEAR     87  68  52 CALM      29.95R HX  90


...NORTH MISSISSIPPI...

CITY           SKY/WX    TMP DP  RH WIND       PRES   REMARKS
TUPELO         CLEAR     83  66  56 N7        29.93S
OLIVE BRANCH   PTCLDY    88  63  42 NE5       29.95S
TUNICA         CLEAR     81  70  69 N5        29.95S
CLARKSDALE     CLEAR     82  73  74 CALM      29.95R
CORINTH        CLEAR     81  72  74 CALM      29.94S
GREENWOOD      CLEAR     80  68  66 N3        29.93R
COLUMBUS       CLEAR     86  64  48 N2        29.92R
STARKVILLE     FAIR      81  68  65 CALM      29.93S
GOLDEN TRIANGL CLEAR     86  63  45 N7        29.92S


...SOUTHEAST MISSOURI...

CITY           SKY/WX    TMP DP  RH WIND       PRES   REMARKS
WEST PLAINS    CLEAR     83  68  60 CALM      30.02S
POPLAR BLUFF   CLEAR     82  76  81 CALM      29.94S
CAPE GIRARDEAU PTCLDY    81  73  76 E3        29.96F


...NORTHWEST ALABAMA...

CITY           SKY/WX    TMP DP  RH WIND       PRES   REMARKS
MUSCLE SHOALS  CLEAR     84  64  50 N5        29.95S


...MIDDLE TENNESSEE...

CITY           SKY/WX    TMP DP  RH WIND       PRES   REMARKS
NASHVILLE      PTCLDY    84  66  54 N8        29.97R
CLARKSVILLE    CLEAR     80  69  69 N6        29.97R
COLUMBIA       CLEAR     84  70  61 CALM      29.96R


...WESTERN KENTUCKY...

CITY           SKY/WX    TMP DP  RH WIND       PRES   REMARKS
PADUCAH        MOCLDY    82  71  69 E5        29.96S
FORT CAMPBELL  CLEAR     78  71  77 NE2       29.97S


...CENTRAL ARKANSAS...

CITY           SKY/WX    TMP DP  RH WIND       PRES   REMARKS
LITTLE ROCK    PTCLDY    88  64  44 CALM      29.95S


SKY/WX REPORTED AS FAIR MEANS FEW OR NO CLOUDS BELOW
12 THOUSAND FEET.



USA.gov is the U.S. government's official web portal to all federal, state and local government web resources and services.